Total_Precipitation_Accumulation
1.93 1.97 1.94 1.99 1.88 1.72 1.67 1.71 1.79 1.57 1.38 1.17 0.94 0.80 0.82 0.80 0.85 0.72 0.64 0.64 0.55 0.46 0.41 0.35 0.30 0.30 0.32 0.39 0.45 0.48 0.53 0.63 0.93 1.19 1.01 0.84 0.75 0.80
1.66 1.70 1.74 1.80 1.86 1.85 1.80 1.72 1.67 1.60 1.50 1.31 1.03 0.78 0.85 0.88 0.93 0.78 0.75 0.82 0.67 0.53 0.43 0.38 0.34 0.29 0.27 0.28 0.28 0.26 0.28 0.35 0.57 1.06 1.14 0.98 0.93 1.00
1.44 1.45 1.56 1.62 1.80 1.86 1.83 1.76 1.71 1.62 1.48 1.39 1.13 0.87 0.83 0.89 0.92 0.85 0.85 0.81 0.69 0.60 0.51 0.46 0.40 0.37 0.33 0.31 0.30 0.26 0.22 0.22 0.25 0.41 0.61 0.69 0.84 1.04
1.24 1.25 1.34 1.42 1.56 1.71 1.79 1.69 1.68 1.63 1.60 1.54 1.30 1.06 0.95 0.93 0.91 0.87 0.79 0.77 0.77 0.72 0.62 0.54 0.50 0.47 0.43 0.38 0.35 0.31 0.29 0.27 0.25 0.26 0.35 0.46 0.56 0.69
1.06 1.07 1.12 1.18 1.28 1.41 1.54 1.63 1.63 1.58 1.67 1.64 1.42 1.16 1.00 0.93 0.93 0.90 0.85 0.87 0.81 0.78 0.72 0.64 0.58 0.51 0.47 0.46 0.45 0.41 0.36 0.33 0.32 0.33 0.35 0.40 0.47 0.51
0.84 0.84 0.89 0.90 0.97 1.11 1.26 1.40 1.54 1.65 1.73 1.73 1.58 1.29 1.08 1.00 0.97 1.00 1.02 0.93 0.92 0.84 0.83 0.79 0.77 0.72 0.64 0.57 0.51 0.46 0.43 0.42 0.40 0.38 0.38 0.37 0.36 0.37
0.85 0.76 0.71 0.71 0.78 0.88 0.98 1.21 1.39 1.54 1.67 1.70 1.63 1.45 1.25 1.16 1.05 0.97 1.03 1.10 1.12 1.01 0.98 0.90 0.84 0.73 0.65 0.59 0.52 0.46 0.40 0.37 0.34 0.32 0.30 0.28 0.27 0.27
0.83 0.83 0.83 0.77 0.67 0.61 0.65 0.81 1.03 1.24 1.40 1.50 1.51 1.40 1.24 1.17 1.20 1.15 1.05 1.05 1.14 1.06 1.05 1.13 1.04 0.90 0.79 0.68 0.62 0.56 0.48 0.42 0.39 0.36 0.33 0.33 0.34 0.33
0.79 0.80 0.84 0.84 0.86 0.75 0.67 0.65 0.70 0.87 1.08 1.25 1.28 1.23 1.29 1.23 1.17 1.11 1.03 0.97 0.95 0.95 0.96 1.07 1.06 0.97 0.85 0.82 0.83 0.73 0.66 0.58 0.52 0.49 0.43 0.38 0.36 0.35
0.85 0.86 0.89 0.92 0.90 1.00 0.96 0.87 0.82 0.83 0.93 0.84 0.93 1.17 1.25 1.25 1.24 1.25 1.22 1.10 0.99 0.92 0.87 0.93 0.93 0.89 0.80 0.75 0.79 0.72 0.65 0.59 0.55 0.53 0.52 0.50 0.47 0.46
0.82 0.81 0.86 0.87 1.05 1.11 1.02 1.00 0.94 0.91 1.06 1.06 1.04 1.07 1.11 1.11 1.12 1.20 1.23 1.15 1.10 0.99 0.85 0.77 0.78 0.83 0.85 0.78 0.77 0.78 0.71 0.66 0.63 0.62 0.61 0.61 0.61 0.58
0.89 0.83 0.99 0.96 0.97 0.91 0.85 1.03 1.02 0.92 0.85 0.82 0.83 0.86 0.86 0.90 0.97 1.00 1.10 1.07 0.99 0.99 0.85 0.75 0.74 0.78 0.81 0.76 0.69 0.67 0.68 0.72 0.71 0.69 0.69 0.69 0.68 0.62
0.91 0.92 0.88 0.97 0.80 0.74 0.77 0.90 1.04 0.98 0.93 0.95 0.89 0.83 0.79 0.80 0.77 0.81 0.92 0.97 0.96 0.94 0.81 0.72 0.73 0.72 0.65 0.61 0.61 0.57 0.52 0.52 0.54 0.56 0.59 0.62 0.64 0.60
0.81 0.73 0.71 0.77 0.62 0.57 0.56 0.67 0.83 0.85 0.84 0.91 0.89 0.84 0.78 0.74 0.71 0.69 0.73 0.79 0.81 0.81 0.79 0.73 0.72 0.69 0.63 0.51 0.49 0.49 0.48 0.46 0.44 0.45 0.44 0.52 0.55 0.57
0.61 0.61 0.53 0.49 0.48 0.44 0.46 0.54 0.59 0.71 0.84 0.87 0.78 0.72 0.74 0.76 0.74 0.70 0.65 0.64 0.66 0.64 0.61 0.59 0.63 0.69 0.68 0.57 0.48 0.45 0.46 0.45 0.41 0.41 0.43 0.43 0.42 0.44
0.39 0.33 0.32 0.34 0.39 0.41 0.41 0.42 0.48 0.65 0.81 0.80 0.73 0.68 0.70 0.73 0.77 0.77 0.73 0.66 0.65 0.65 0.60 0.56 0.58 0.62 0.62 0.58 0.53 0.47 0.46 0.47 0.44 0.44 0.45 0.45 0.43 0.40
0.51 0.43 0.36 0.34 0.35 0.38 0.40 0.45 0.57 0.67 0.74 0.67 0.66 0.62 0.64 0.70 0.75 0.77 0.79 0.75 0.69 0.66 0.70 0.71 0.69 0.68 0.65 0.63 0.62 0.58 0.56 0.54 0.53 0.52 0.50 0.47 0.45 0.42
0.50 0.51 0.50 0.50 0.50 0.49 0.46 0.43 0.44 0.52 0.58 0.63 0.62 0.60 0.59 0.58 0.59 0.63 0.67 0.68 0.65 0.62 0.60 0.62 0.68 0.74 0.73 0.68 0.60 0.55 0.61 0.63 0.62 0.60 0.55 0.49 0.46 0.48
0.43 0.45 0.45 0.46 0.45 0.43 0.40 0.37 0.34 0.34 0.41 0.49 0.57 0.62 0.62 0.59 0.57 0.54 0.53 0.53 0.51 0.49 0.48 0.46 0.49 0.53 0.59 0.60 0.59 0.50 0.48 0.55 0.56 0.54 0.51 0.47 0.43 0.46
0.27 0.32 0.31 0.31 0.30 0.30 0.28 0.25 0.24 0.26 0.28 0.30 0.37 0.47 0.58 0.68 0.69 0.63 0.58 0.56 0.54 0.49 0.46 0.42 0.39 0.38 0.41 0.43 0.41 0.39 0.40 0.44 0.46 0.45 0.43 0.43 0.41 0.44
0.10 0.13 0.13 0.14 0.16 0.16 0.15 0.16 0.17 0.19 0.22 0.23 0.24 0.27 0.35 0.46 0.57 0.62 0.65 0.71 0.69 0.63 0.59 0.55 0.50 0.50 0.43 0.41 0.37 0.31 0.31 0.33 0.34 0.32 0.32 0.34 0.35 0.35
0.05 0.06 0.06 0.06 0.08 0.09 0.08 0.08 0.09 0.12 0.15 0.16 0.17 0.18 0.22 0.27 0.34 0.44 0.48 0.53 0.57 0.59 0.62 0.63 0.61 0.60 0.54 0.49 0.41 0.34 0.31 0.31 0.34 0.37 0.33 0.30 0.28 0.27
0.04 0.05 0.05 0.05 0.06 0.08 0.12 0.14 0.11 0.09 0.11 0.14 0.15 0.16 0.16 0.18 0.21 0.26 0.31 0.36 0.40 0.44 0.48 0.50 0.51 0.49 0.48 0.47 0.46 0.43 0.39 0.35 0.34 0.34 0.33 0.38 0.35 0.27